Погода в Сретенском

Россия / Пермский край     58°36′19″N   55°33′22″E
темп.,
°C
ветер,
м/с
пор.,
м/с
влажн.,
%
обл.,
%
осадки,
мм/ч
давл.,
гПа
погр.,
м
16 сентября, чт
чт1623:00+5з4697100 4.4 998813
02:00+5з4796100 3.4 998941
05:00+5з4998100 3.9 999907
08:00+4зсз499363 0.3 1000768
11:00+4з4891100 0.4 1000816
14:00+4з51097100 0.4 1000723
17:00+4сз4997100 2.4 1001889
20:00+3сз51098100 0.4 1002965
17 сентября, пт
пт1723:00+5ссз51097100 0.8 10021204
02:00+5ссз51097100 0.4 1004945
05:00+5ссз5996100 0.4 1005868
08:00+4ссз4996100 0.1 1006798
11:00+4ссз4896100 0.1 1007684
14:00+5ссз3790100 0.1 1008717
17:00+5ссз3793100 0.6 1009718
20:00+4зсз2593100 0.1 1010161
18 сентября, сб
сб1823:00+3сз2793100 0.3 1010231
02:00+2ссз3898100 0.0 1011294
05:00+2ссз3898100 0.2 1012356
08:00+2ссз3993100 0.3 1012571
11:00+3ссз488895 0.5 1012870
14:00+5сз5978100 0.4 10121288
17:00+5сз51074100 0.8 10121400
20:00+3сз51187100 0.2 1013994
19 сентября, вс
вс1923:00+2сз51194100 0.3 10131063
02:00+2сз51197100 0.3 10131142
05:00+2сз51194100 0.6 10131021
08:00+2сз51293100 0.2 10141062
11:00+3ссз51084100 0.4 10151225
14:00+4ссз51073100 0.1 10171258
17:00+6ссз496294 0.1 10181389
20:00+3ссз2874100 0.0 1020258
20 сентября, пн
пн2023:00+3ссз2880100 0.0 1021475
02:00+2сз3783100 0.0 1023340
05:00+1сз268699 0.0 1024270
08:00−1зсз269325 0.0 1026177
11:00+4ссз236717 0.0 1027718
14:00+7с335544 0.0 10281260
17:00+7ссв335574 0.0 10281190
20:00+1св26895 0.0 1031140